Weather History for West Palm Beach, FL

Change the Weather History Date:

Monday, September 3, 2012

  Actual Average Record
Temperature  
Mean Temperature 82 °F 82 °F  
Max Temperature 88 °F 89 °F 96 °F (1951)
Min Temperature 75 °F 76 °F 69 °F (1996)
Degree Days  
Heating Degree Days 0 0  
Month to date heating degree days 0 0  
Since 1 July heating degree days 0 0  
Cooling Degree Days 17 17  
Month to date cooling degree days 53 51  
Year to date cooling degree days 2957 2757  
Growing Degree Days 32 (Base 50)    
Moisture  
Dew Point 72 °F    
Average Humidity 73    
Maximum Humidity 87    
Minimum Humidity 59    
Precipitation  
Precipitation 0.00 in 0.29 in 2.17 in (1979)
Month to date precipitation 0.13 0.87  
Year to date precipitation 61.60 41.59  
Snow  
Snow 0.00 in - - ()
Month to date snowfall 0.0  
Since 1 July snowfall 0.0  
Since 1 September snowfall 0.0  
Snow Depth 0.00 in    
Sea Level Pressure  
Sea Level Pressure 30.01 in    
Wind  
Wind Speed 6 mph (ESE)    
Max Wind Speed 17 mph    
Max Gust Speed 21 mph    
Visibility 10 miles    
Events      
T = Trace of Precipitation, MM = Missing Value Source: NWS Daily Summary

Daily Weather History Graph

Daily Weather History Graph

Search for Another Location

Airport:

Trip Planner

Search our weather history database for the weather conditions in past years. The results will help you decide how hot, cold, wet, or windy it might be!

Date:

Astronomy

Sep. 03, 2012 Rise Set
Actual Time 7:01 AM EDT 7:37 PM EDT
Civil Twilight 6:37 AM EDT 8:01 PM EDT
Nautical Twilight 6:10 AM EDT 8:28 PM EDT
Astronomical Twilight 5:42 AM EDT 8:56 PM EDT
Moon 9:22 PM EDT (9/3) 9:43 AM EDT (9/3)
Length of Visible Light 13h 23m
Length of Day
12h 36m
Waning Gibbous, 90% of the Moon is Illuminated
Sep 3
Waning Gibbous
Sep 8
Last Quarter
Sep 15
New
Sep 22
First Quarter
Sep 29
Full

Hourly Weather History & Observations

Time (EDT) Temp. Heat Index Dew Point Humidity Pressure Visibility Wind Dir Wind Speed Gust Speed Precip Events Conditions
12:53 AM 80.1 °F 83.2 °F 70.0 °F 71% 30.01 in 10.0 mi Calm Calm - N/A   Partly Cloudy
1:53 AM 80.1 °F 83.6 °F 71.1 °F 74% 30.01 in 10.0 mi East 3.5 mph - N/A   Partly Cloudy
2:53 AM 78.1 °F - 71.1 °F 79% 30.00 in 10.0 mi Calm Calm - N/A   Partly Cloudy
3:53 AM 75.0 °F - 71.1 °F 87% 29.99 in 10.0 mi Calm Calm - N/A   Scattered Clouds
4:53 AM 75.9 °F - 72.0 °F 87% 29.98 in 10.0 mi Calm Calm - N/A   Partly Cloudy
5:53 AM 75.9 °F - 72.0 °F 87% 29.99 in 10.0 mi Calm Calm - N/A   Partly Cloudy
6:53 AM 75.0 °F - 72.0 °F 90% 30.01 in 10.0 mi Calm Calm - N/A   Scattered Clouds
7:53 AM 77.0 °F - 72.0 °F 84% 30.03 in 10.0 mi Calm Calm - N/A   Scattered Clouds
8:53 AM 82.0 °F 87.9 °F 73.9 °F 76% 30.03 in 10.0 mi North 3.5 mph - N/A   Scattered Clouds
9:53 AM 84.0 °F 89.6 °F 72.0 °F 67% 30.04 in 10.0 mi Variable 4.6 mph - N/A   Scattered Clouds
10:53 AM 84.9 °F 90.7 °F 72.0 °F 65% 30.05 in 10.0 mi East 6.9 mph - N/A   Mostly Cloudy
11:53 AM 87.1 °F 92.8 °F 71.1 °F 59% 30.05 in 10.0 mi East 11.5 mph - N/A   Mostly Cloudy
12:53 PM 86.0 °F 93.0 °F 73.0 °F 65% 30.04 in 10.0 mi East 15.0 mph - N/A   Mostly Cloudy
1:53 PM 87.1 °F 93.6 °F 72.0 °F 61% 30.03 in 10.0 mi ESE 11.5 mph - N/A   Scattered Clouds
2:53 PM 84.9 °F 91.4 °F 73.0 °F 67% 30.01 in 10.0 mi ESE 9.2 mph - N/A   Mostly Cloudy
3:53 PM 87.1 °F 92.8 °F 71.1 °F 59% 30.00 in 10.0 mi SE 11.5 mph - N/A   Scattered Clouds
4:53 PM 86.0 °F 91.5 °F 71.1 °F 61% 29.99 in 10.0 mi ESE 12.7 mph - N/A   Scattered Clouds
5:53 PM 84.9 °F 89.4 °F 70.0 °F 61% 29.99 in 10.0 mi ESE 10.4 mph - N/A   Scattered Clouds
6:53 PM 82.9 °F 87.5 °F 71.1 °F 67% 29.99 in 10.0 mi SE 9.2 mph - N/A   Scattered Clouds
7:53 PM 82.0 °F 86.3 °F 71.1 °F 69% 29.99 in 10.0 mi SE 9.2 mph - N/A   Scattered Clouds
8:53 PM 82.0 °F 86.3 °F 71.1 °F 69% 30.01 in 10.0 mi SSE 4.6 mph - N/A   Scattered Clouds
9:53 PM 81.0 °F 84.9 °F 71.1 °F 72% 30.02 in 10.0 mi SE 4.6 mph - N/A   Scattered Clouds
10:53 PM 81.0 °F 85.2 °F 72.0 °F 74% 30.03 in 10.0 mi SE 4.6 mph - N/A   Scattered Clouds
11:53 PM 81.0 °F 85.8 °F 73.0 °F 77% 30.03 in 10.0 mi SE 4.6 mph - N/A   Scattered Clouds